Location: downtown San Diego
(32.7310°N, 117.1990°W)
Time: 18:33:19
(UTC-07:00)

SPOT 5 - Pass Details

Date: 14 June 2018
Orbit: 624 x 814 km, 98.4° (Epoch: 17 June)

Event Time Altitude Azimuth Distance (km) Brightness Sun altitude
Exits shadow 21:45:11 28° 95° (E) 1,346 3.9 -18.8°
Maximum altitude 21:46:18 31° 70° (ENE) 1,270 3.9 -19.0°
Drops below altitude 10° 21:50:41 10° 9° (N) 2,291 5.9 -19.6°
Sets 21:53:16 0° 360° (N) 3,250 7.0 -20.0°
